Location: Bad Salzschlirf
(50.3750°N, 9.3000°E)
Time: 22:52:47
(UTC+01:00)

ISS - Pass Details

Date: 12 November 2019
Orbit: 412 x 421 km, 51.6° (Epoch: 15 November)

Event Time Altitude Azimuth Distance (km) Brightness Sun altitude
Exits shadow 05:01:28 14° 160° (SSE) 1,257 -1.2 -23.8°
Drops below altitude 10° 05:02:11 10° 153° (SSE) 1,498 -0.7 -23.7°
Sets 05:04:26 0° 141° (SE) 2,357 0.6 -23.4°
